www.pogodaiklimat.ru

Погода и климат >> Архив погоды >> Антарктида >> Carlini Base


ПОГОДА на Carlini Base

  • Прогноз погоды на Carlini Base
  • Монитор погоды на Carlini Base

АРХИВ ПОГОДЫ на Carlini Base

Время (UTC), дата Ветер
(напр.,м/с)
 
Видим.   Явления Облачность Т
(С)
Тd
(С)
f
(%)
Тe
(С)
Тes
(С)
Комфортность P
(гПа)
Po
(гПа)
Тmin
(С)
Tmax
(С)
R
(мм)
R24
(мм)
S
(см)
15 13.08 СЗ 9 8000 м осадки на расстоянии 8/6 240 м
[Frnb Ac As]
-1.5 -3.8 84 -10 -10 1004.0 1002.6
18 13.08 СЗ 11 7000 м дымка 6/5 90 м
[St Ci fib]
-1.4 -3.1 88 -11 -11 1002.6 1001.2
21 13.08 З 9 3000 м дымка 10/10 90 м
[St]
-2.5 -3.1 96 -11 -11 1001.8 1000.4
00 14.08 З 9 5000 м дымка 9/9 180 м
[St]
-2.5 -3.1 96 -11 -11 1001.0 999.6 -4.0 -1.1
03 14.08 З 14 2000 м слаб. морось туман 10/10 180 м
[Frnb]
-2.4 -3.0 96 -13 -13 999.7 998.2
06 14.08 З 12 5000 м в посл. час морось туман 10/10 210 м
[St]
-2.4 -3.9 89 -12 -12 998.2 996.8 0.5
09 14.08 З 14 5000 м дымка 10/10 210 м
[St]
-3.3 -5.0 88 -14 -14 997.0 995.6
12 14.08 З 7 12 км 8/3 300 м
[St Ac As]
-2.9 -7.0 73 -11 -11 996.8 995.4 -3.4 -0.8 0.5
18 14.08 З 16 3000 м осадки на расстоянии 10/6 90 м
[Frnb Ac As]
-2.1 -3.9 87 -13 -13 995.4 994.0
21 14.08 З 17 3000 м осадки на расстоянии 10/10 90 м
[Frnb]
-1.8 -3.9 86 -13 -13 993.8 992.4
00 15.08 З 17 8000 м дымка 10/10 150 м
[St]
-1.2 -2.8 89 -12 -12 991.9 990.5 -2.9 -1.1
03 15.08 З 13 8000 м дымка 10/10 180 м
[St]
-1.1 -2.7 89 -11 -11 990.6 989.2
06 15.08 З 13 3000 м слаб. морось туман 10/10 180 м
[Frnb]
-1.1 -2.1 93 -11 -11 989.1 987.7 0.0
09 15.08 З 5 3000 м слаб. снег {морось} туман 10/10 180 м
[Frnb]
-1.3 -2.3 93 -8 -8 989.1 987.7
12 15.08 В 11 2000 м слаб. снег туман 10/10 120 м
[Frnb]
-4.2 -5.7 89 -14 -14 991.0 989.6 -4.2 -1.0 9 5
15 15.08 В 8 1500 м слаб. снег туман 10/10 90 м
[Frnb]
-5.5 -7.3 87 -15 -15 993.6 992.2
18 15.08 В 9 4000 м дымка {снег} 9/5 210 м
[St Ac und]
-6.4 -8.3 86 -16 -16 993.5 992.1 2
21 15.08 В 6 4000 м дымка 9/3 210 м
[St Ac und Ci fib]
-7.3 -9.4 85 -16 -16 994.3 992.9
00 16.08 ЮЗ 3 11 км 8/4 480 м
[St Ci fib]
-10.4 -12.1 87 -16 -16 994.6 993.2 -10.7 -3.8
03 16.08 З 2 12 км 10/10 300 м
[St]
-7.1 -9.2 85 -12 -12 995.0 993.6
06 16.08 З 6 12 км 10/10 360 м
[St]
-5.0 -6.7 88 -13 -13 994.2 992.8
09 16.08 Ю 3 12 км 10/10 360 м
[St]
-5.5 -6.6 92 -11 -11 993.9 992.5
12 16.08 Ю 3 8000 м дымка 10/10 240 м
[St]
-6.8 -9.2 83 -13 -13 995.9 994.5 -10.5 -4.5 2
15 16.08 В 20 100 м метель {снег} 6/4 150 м
[St Ac As]
-14.1 -15.8 87 -29 -29 1001.4 1000.0
18 16.08 В 13 4000 м позёмок {снег} 6/5 240 м
[St Ci fib]
-16.3 -20.3 71 -30 -30 1006.0 1004.6 0.0
21 16.08 СВ 14 500 м метель 10/10 180 м
[Frnb]
-17.0 -19.7 79 -32 -32 опасность
обморожения
1009.4 1008.0
00 17.08 В 13 2000 м сильный позёмок 10/10 180 м
[Frnb]
-16.6 -19.9 76 -30 -30 1013.0 1011.4 -17.0 -6.4
03 17.08 С 6 12 км 10/10 270 м
[St]
-14.5 -18.8 70 -24 -24 1015.2 1013.7
06 17.08 СЗ 10 12 км 10/10 300 м
[St]
-12.3 -14.8 82 -23 -23 1015.7 1014.2
09 17.08 З 12 5000 м позёмок 10/10 300 м
[St]
-8.0 -9.4 90 -19 -19 1013.7 1012.2
12 17.08 З 11 2000 м слаб. снег туман 10/10 240 м
[Frnb]
-5.7 -7.5 87 -16 -16 1012.3 1010.8 -16.7 -5.4 0.2 0
15 17.08 З 9 12 км {снег} 9/5 240 м
[St Ac As]
-6.1 -9.6 76 -16 -16 1011.2 1009.8
18 17.08 З 9 12 км {снег} 9/9 300 м
[St]
-6.4 -10.0 76 -16 -16 1009.0 1007.6 0.0
21 17.08 З 10 12 км 5/3 300 м
[St Ci fib]
-6.2 -8.5 84 -16 -16 1007.0 1005.6
00 18.08 СЗ 8 12 км ясно -6.0 -8.6 82 -15 -15 1005.6 1004.2 -7.1 -5.6
03 18.08 З 3 12 км 8/8 300 м
[St]
-3.8 -6.7 80 -9 -9 1005.1 1003.7
06 18.08 З 3 12 км 10/8 360 м
[St Ac As]
-2.9 -4.9 86 -8 -8 1004.4 1003.0
09 18.08 З 4 12 км 10/8 300 м
[St Ac As]
-4.2 -5.7 89 -11 -11 1003.2 1001.8
12 18.08 З 5 12 км 1/1 480 м
[St]
-1.9 -4.7 81 -8 -8 1003.0 1001.6 -6.3 -1.6 0.0
15 18.08 З 3 12 км 9/3 360 м
[St Ci fib]
-2.6 -4.8 85 -7 -6 1001.8 1000.4
18 18.08 ЮЗ 3 12 км 8/4 420 м
[St Ci fib]
-1.0 -4.2 79 -6 -5 1000.2 998.8
21 18.08 З 8 12 км 8/5 420 м
[St Ci fib]
-0.7 -3.8 80 -8 -8 998.7 997.3
00 19.08 З 6 12 км 10/10 450 м
[St]
-0.8 -3.3 83 -8 -8 1000.1 998.6 -2.9 +0.5
03 19.08 нст 1 12 км 6/3 450 м
[St Ac trans Ci fib]
-1.2 -3.8 82 -2 -2 1003.8 1002.4
06 19.08 ЮВ 2 12 км ясно -4.3 -6.6 84 -9 -9 1009.1 1007.7
09 19.08 Ю 1 12 км ясно -4.5 -9.2 70 -7 -7 1012.0 1010.6
12 19.08 З 14 2000 м сильный позёмок 3/3 300 м
[St]
-3.9 -4.7 94 -15 -15 1011.1 1009.7 -4.8 -0.8
15 19.08 З 8 3000 м дымка 10/10 180 м
[St]
-3.6 -4.4 94 -12 -12 1010.6 1009.2
18 19.08 ЮЗ 6 12 км 8/8 300 м
[St]
-2.7 -4.6 87 -10 -10 1011.0 1009.6
21 19.08 З 3 12 км 8/8 300 м
[St]
-3.0 -5.0 86 -8 -8 1012.1 1010.6
00 20.08 В 2 12 км ясно -4.7 -6.3 89 -8 -8 1012.3 1010.9 -4.9 -2.6
03 20.08 СЗ 4 12 км 3/0
[Ci fib]
-3.5 -5.3 87 -10 -10 1011.5 1010.1
06 20.08 СЗ 2 12 км 4/1 300 м
[St Ci fib]
-2.3 -5.2 80 -6 -6 1012.0 1010.6
09 20.08 З 5 12 км 1/1 300 м
[St]
-1.3 -4.6 78 -8 -8 1011.4 1010.0

 

Местоположение метеостанции Carlini Base (Антарктида): широта -62.23 долгота -58.63 высота над уровнем моря 4 м.

В архиве по умолчанию представлена погода на Carlini Base за последнюю неделю. Архивные данные за месяц целиком и за предыдущие месяцы, начиная с января 2011 года, Вы можете получить, выбрав интересующий диапазон дат из раскрывающегося списка и нажав кнопку "Ввод!".


*Определитесь, кто Вы:
робот инопланетянин человек

Внимание! Время в таблицах - всемирное. Для получения местного времени необходимо прибавить поправку, которая равна 0 ч.

Смотрите также архив погоды в соседних городах и на ближайших метеорологических станциях:

Погода на King Sejong (Антарктида) (7 км)
Погода на Dinamet-Уругвай (Антарктида) (12 км)
Погода на Беллинсгаузене (Антарктида) (16 км)
Погода на Чанчэн (Антарктида) (17 км)
Погода на Frei Chi-Base (Антарктида) (19 км)
Погода на Captain Arturo Prat Base (Антарктида) (62 км)
Погода на Острове Хуана Карлоса (Антарктида) (102 км)
Погода на Бернардо О`Хиггинс (Антарктида) (126 км)
Погода на Габриэль де Кастилья (Антарктида) (134 км)
Погода на Эсперансе (Антарктида) (155 км)

Пояснения к столбцам:

Ветер - указаны скорость ветра в м/с - средняя за 10 мин, порывы в срок и между сроками (в фигурных скобках) и направление, откуда дует ветер: С - северный, СВ - северо-восточный, В - восточный, ЮВ - юго-восточный, Ю - южный, ЮЗ - юго-западный, З - западный, СЗ - северо-западный.
Видимость - горизонтальная дальность видимости в метрах или километрах. При видимости от 1 до 10 км при отсутствии осадков обычно наблюдается дымка, при ухудшении видимости до 1 км и менее - туман. В сухую погоду видимость может ухудшаться дымом, пылью или мглою.
Явления - указаны атмосферные явления, наблюдавшиеся в срок или в последний час перед сроком; фигурными скобками обозначены явления, наблюдавшиеся между сроками (за 1-3 часа до срока); квадратными скобками обозначены град или гололедные отложения с указанием их диаметра в мм.
Облачность - указаны через наклонную черту общая и нижняя облачность в баллах и высота нижней границы облаков в метрах; квадратными скобками обозначены формы облаков: Ci - перистые, Cs - перисто-слоистые, Cc - перисто-кучевые, Ac - высококучевые, As - высокослоистые, Sc - слоисто-кучевые, Ns - слоисто-дождевые, Cu - кучевые, Cb - кучево-дождевые. Подробнее классификацию облаков см. в Атласе облаков (PDF).
T - Температура воздуха - температура, измеренная на высоте 2 м над землей.
Td - Температура точки росы - температура, при понижении до которой содержащийся в воздухе водяной пар достигнет насыщения.
f - Относительная влажность воздуха - влажноcть воздуха, измеренная на высоте 2 м над землей.
Te - Эффективная температура - температура, которую ощущает одетый по сезону человек в тени. Характеристика душности погоды. При расчете учитывается влияние влажности воздуха и скорости ветра на теплоощущения человека.
Tes - Эффективная температура на солнце - температура, которую ощущает человек, с поправкой на солнечный нагрев. Характеристика знойности погоды. Зависит от высоты солнца над горизонтом, облачности и скорости ветра. Ночью, в пасмурную погоду, а также при ветре 12 м/с и более поправка равна нулю.
P - Атмосферное давление - приведенное к уровню моря атмосферное давление.
Po - Атмосферное давление - измеренное на уровне метеостанции атмосферное давление.
Tmin - Минимальная температура - минимум температуры воздуха на высоте 2 м над землей.
Tmax - Максимальная температура - максимум температуры воздуха на высоте 2 м над землей.
R - Количество осадков - Количество выпавших осадков за период времени, мм. При наведении курсора мыши на число - период времени, за который выпало указанное количество осадков.
R24 - Количество осадков - Количество выпавших осадков за 24 часа, мм.
S - Снежный покров - Высота снежного покрова, см. При наведении курсора мыши на число - состояние снежного покрова и степень покрытия местности в баллах.